Miscellaneous Local Product
Issued by NWS Hastings, NE

Home | Current Version | Previous Version | Graphics & Text | Print | Product List | Glossary On
Versions: 1 2 3 4 5 6 7 8 9 10 11 12 13 14 15 16 17 18 19 20 21 22 23 24 25 26 27 28 29 30 31 32 33 34 35 36 37 38 39 40 41 42 43 44 45 46 47 48 49 50
115
AXUS43 KGID 022102
MISGRI

GID CWA HOURLY WEATHER ROUNDUP
NATIONAL WEATHER SERVICE HASTINGS NE
300 PM CST FRI DEC 02 2016

NOTE: "FAIR" INDICATES FEW OR NO CLOUDS BELOW 12,000 FEET WITH NO
SIGNIFICANT WEATHER AND/OR OBSTRUCTIONS TO VISIBILITY.

...SOUTH CENTRAL NEBRASKA...

CITY           SKY/WX    TMP DP  RH WIND       PRES   REMARKS
GRAND ISLAND   SUNNY     40  25  55 NW3       30.27S
HASTINGS       MOSUNNY   40  26  57 N6        30.27F
KEARNEY        SUNNY     39  23  52 CALM      30.26S
ORD            SUNNY     42  22  44 NW6       30.25S
YORK           MOSUNNY   39  27  60 NW5       30.28S
AURORA         SUNNY     40  25  54 NW3       30.27S
LEXINGTON      SUNNY     40  25  55 CALM      30.25S
HOLDREGE       CLOUDY    39  25  56 CALM      30.25S
HEBRON         MOSUNNY   42  26  54 N3        30.27S

...NEBRASKA PANHANDLE...

CITY           SKY/WX    TMP DP  RH WIND       PRES   REMARKS
CHADRON        SUNNY     44  18  35 W6        30.18F
ALLIANCE       CLOUDY    40  19  43 SW5       30.17F
SCOTTSBLUFF    SUNNY     40  20  44 W6        30.19F
SIDNEY         CLOUDY    37  23  56 CALM      30.20R

...WESTERN AND NORTH CENTRAL NEBRASKA...

CITY           SKY/WX    TMP DP  RH WIND       PRES   REMARKS
VALENTINE      CLOUDY    42  25  50 N7        30.22R
AINSWORTH      SUNNY     42  26  52 NW6       30.22S
ONEILL         MOSUNNY   37  27  65 CALM      30.26S
BROKEN BOW     SUNNY     43  23  45 NW5       30.22F
IMPERIAL       CLOUDY    41  23  48 CALM      30.23R
NORTH PLATTE   SUNNY     43  19  38 SW5       30.24R
MCCOOK         CLOUDY    42  23  46 CALM      30.26R

...EASTERN NEBRASKA...

CITY           SKY/WX    TMP DP  RH WIND       PRES   REMARKS
NORFOLK        CLOUDY    35  25  66 NW8       30.28S WCI  29
SO SIOUX CITY  CLOUDY    40  30  67 W6        30.29F
TEKAMAH        CLOUDY    39  29  67 W9        30.30S WCI  33
COLUMBUS       SUNNY     39  27  60 NW5       30.29R
ALBION         MOSUNNY   39  26  59 NW3       30.27S
OMAHA EPPLEY   PTSUNNY   40  30  67 N8        30.30R WCI  34
OFFUTT AFB     MOSUNNY   42  30  61 NW5       30.28S
MILLARD        MOSUNNY   42  30  62 N5        30.29R
LINCOLN        SUNNY     44  26  49 W6        30.29S
NEBRASKA CITY  SUNNY     43  26  50 NW7       30.28S
BEATRICE       SUNNY     45  28  51 NW5       30.27F
FALLS CITY       N/A    N/A N/A N/A MISG      30.28S

...NORTHERN KANSAS...

CITY           SKY/WX    TMP DP  RH WIND       PRES   REMARKS
GOODLAND       PTSUNNY   43  14  31 VRB3      30.21F
HILL CITY      CLOUDY    46  19  34 CALM      30.26R
NORTON         MOCLDY    43  18  36 CALM      30.25R
PHILLIPSBURG   SUNNY     45  25  45 CALM      30.27R
SMITH CENTER   SUNNY     45  25  45 CALM      30.27R
BELOIT         SUNNY     45  25  45 CALM      30.26R
HAYS           SUNNY     47  20  34 N8        30.24S
RUSSELL        SUNNY     48  21  34 N8        30.23S
CONCORDIA      CLOUDY    44  27  51 NE5       30.25F
SALINA         SUNNY     50  24  36 CALM      30.27R
TOPEKA         SUNNY     50  26  39 VRB3      30.27F



USA.gov is the U.S. government's official web portal to all federal, state and local government web resources and services.